DECAYED

STARLINK-5056, 53910 (Decayed)

Orbit data source: Space-Track

STARLINK-5056, 53910 was a payload satellite owned by SpaceX/Seattle (US) in LEO that was launched on Sat, 24 Sep 2022 UTC via an FALCON 9 launch vehicle from the Air Force Eastern Test Range (AFETR). Payload-class satellites include a variety of spacecraft equipped with specific instruments for various scientific and technological missions. These include communications satellites like Starlink; space stations such as the ISS; scientific satellites like the Hubble; Earth observation satellites from companies like Planet Labs, Umbra, and HawkEye 360; GPS; miniature CubeSats for education and research; and military/defense satellites.

Not visible in the next 10 days
Identifier
53910, 2022-119AA
Orbit
Decayed
Country
Flag of USUS
Related business
Manufacturer
SpaceX/Seattle
Mission
Decayed Commercial Communications
Bus & Motor
STARLINK, Unknown motor
Mass
305 kg wet, ~290 kg dry
Launch date (UTC)
2022-09-24 (4 years ago)
Launch vehicle
FALCON 9
Launch site
Air Force Eastern Test Range (AFETR)
Object type
Payload
Rocket body
Debris
Shape & HBR
Box + 1 Pan, 10.1 m
Radar Cross Section
13.562 m², Large (>1 m²)

Expand to show TLE details & history
Last TLE update: 6 months ago

TLE from 6 months ago
0 STARLINK-5056
1 53910U 22119AA  25365.39595231  .62366280  10645-4  33405-1 0  9990
2 53910  53.2039 143.5061 0114214 113.7852 247.5208 16.05679517183166
Epoch: 2025-12-31T09:30Z
TLE epoch observation values (Epoch: 2025-12-31T09:30:10.279Z)
Latitude
-0°
Longitude
-99.10221°
Altitude
289.373 km
Speed
7.718 km/s
True Right ascension
09h 34m 01s
True Declination
0° 00' 00"
Sunlit
Object was in full shadow at epoch
Visualization orbit readout
Latitude
Unknown
Longitude
Unknown
Altitude
Unknown
Speed
Unknown
Apparent Right ascension
Unknown
Apparent Declination
Unknown
Sunlit
N/A
Visualization observer readout
Local Sidereal Time
21:32:20
Azimuth
Unknown
Elevation
Unknown
Doppler factor
Unknown
Orbital elements
Apogee altitude
334.785 km
Perigee altitude
183.174 km
Semi-major axis
6,637.116 km
Eccentricity
0.01142
Inclination
53.2039°
RAAN
143.5061°
Arg. of periapsis
113.7852°
True anomaly
246.3181°
Mean anomaly
247.5208°
Eccentric anomaly
246.91879°
Mean motion
4.01397 °/min
Orbital period
89.69 mins
BSTAR
0.033405
Loading maneuver chart data...
Computing Atmospheric mass density...
Loading historical data...
Loading historical data...
Loading historical data...
Loading historical data...
Loading historical data...
Loading historical data...
Loading historical data...

Documentation

Showing up to 5 results
|